Tracking 19847 objects as of 16-Sep-2019
HD Live streaming from Space Station
objects crossing your sky now

FENGYUN 1C DEB

Track FENGYUN 1C DEB now!
10-day predictions


NORAD ID: 33692
Int'l Code: 1999-025DGD
Perigee: 656.8 km
Apogee: 694.3 km
Inclination: 99.1 °
Period: 98.1 minutes
Semi major axis: 7046 km
RCS: 0.0151 m2 (small)
Launch date: May 10, 1999
Source: People's Republic of China (PRC)
Launch site: Taiyaun Space Center, China (TSC)

Note: This is SATELLITE DEBRIS
aabbcc
Your satellite tracking list
Your tracking list is empty




NASA's NSSDC Master Catalog

Two Line Element Set (TLE):
1 33692U 99025DGD 19256.72191062 +.00003339 +00000-0 +59386-3 0  9991
2 33692 099.1169 224.8087 0026569 060.9057 063.4117 14.67701053600570
Source of the keplerian elements: AFSPC